Aérodrome :
LOGIN :

S'inscrire | Disclaimer

   EN    FR    IT 

 










Légende :    VFR   VFR Marginal   IFR   IFR Intensif   IFR Très Intensif
Visi : 
Plafond : 
>= 8 km
>= 3000ft
5 à 8 km
1000 à 3000 ft
1500m à 5 km
500 à 1000 ft
800 à 1500m
200 à 500 ft
< 800m
< 200 ft
Symboles :   Orages  Brouillard  Fortes neiges  Fortes précipitations  Vent > 20 kt
SIGMETs :   Divers  Orages  Givrage  Turbulence  Onde Orograph.  Cendres Volcan.







- Altitude de l'aérodrome : 485 ft
- Code IATA : QSA


LELL - Sabadell

DERNIER METAR :
  • 211800Z AUTO 24006KT 9999 NCD 21/16 Q1018

METARs EXPIRÉS :
  • 211730Z AUTO 24005KT 200V280 9999 NCD 21/17 Q1018
  • 211700Z 23006KT 200V260 CAVOK 22/16 Q1017
  • 211630Z 22005KT 190V250 CAVOK 23/16 Q1018
  • 211600Z 22006KT 190V250 CAVOK 24/16 Q1018
  • 211530Z 22006KT 170V250 CAVOK 25/16 Q1018

TAF TAF LELL
Valide du 21 à 15h jusqu'au 22 à 15h UTC


211400Z 2115/2215 24005KT 9999 FEW030 TX22/2213Z TN13/2206Z
BECMG 2122/2124 VRB03KT
BECMG 2207/2210 20006KT
Pas de NOTAMs connus pour ce terrain.



MET'MAP, la Météo Aéronautique d'un coup d'oeil ! - Copyright ORBIFLY Décembre 2007 - Disclaimer

ORBIFLY MET'MAP TEAM :

Programmation & Développement : Alexandra Zaïnal
Conception & Développement : Baudouin d'Aumeries
Co-Programmation & Développement : Marc-Olivier Méhu
Soutien technique & logistique : Manuel Goepfert

Contact : metmap@orbifly.com




SOURCES & CREDITS :

   NOAA